"Timestamp","TZ","WindDir_Mean (deg)","WindSpd_Mean (km/h)","WindSpd_Min (km/h)","WindSpd_Max (km/h)","Temp_Mean (deg)","RH_Mean (%)","MSLP_Mean (hPa)","Rain_Acc (mm)","Rain_Intensity (mm/h)","Hail_Acc (hits/cm2)","Hail_Intensity (hits/cm2hr)","Solar_Mean (W/m2)"
2020/07/24 00:00:00.004,n,253,2.88,2.52,3.24,14,85.1,1023.42,0,0,0,0,0.029602
2020/07/24 00:01:00.001,n,129,1.08,0.36,2.52,14,85.1,1023.42,0,0,0,0,0.030479
2020/07/24 00:02:00.000,n,201,1.08,0.72,1.8,14,85,1023.42,0,0,0,0,0.033951
2020/07/24 00:03:00.000,n,287,4.32,1.8,5.76,14,85.1,1023.42,0,0,0,0,0.031319
2020/07/24 00:04:00.000,n,298,1.44,0.72,2.16,14,85.3,1023.42,0,0,0,0,0.029602
2020/07/24 00:05:00.006,n,276,5.4,4.68,5.76,14,85.1,1023.42,0,0,0,0,0.033951
2020/07/24 00:06:00.003,n,214,0.72,0.72,1.08,14,85,1023.32,0,0,0,0,0.033073
2020/07/24 00:07:00.000,n,269,4.68,4.68,5.04,14,85,1023.32,0,0,0,0,0.032234
2020/07/24 00:08:00.013,n,273,3.24,2.16,4.32,14,85,1023.32,0,0,0,0,0.032234
2020/07/24 00:09:00.010,n,266,4.32,3.96,4.68,14,85,1023.32,0,0,0,0,0.032234
2020/07/24 00:10:00.000,n,259,4.32,3.6,5.04,14,85,1023.32,0,0,0,0,0.027885
2020/07/24 00:11:00.003,n,241,1.8,1.8,2.16,14,85,1023.32,0,0,0,0,0.027885
2020/07/24 00:12:00.000,n,182,1.08,1.08,1.44,14,85,1023.32,0,0,0,0,0.029602
2020/07/24 00:13:00.000,n,7,1.44,1.08,1.8,14,85.2,1023.32,0,0,0,0,0.030479
2020/07/24 00:14:00.000,n,203,2.88,1.8,3.24,14,85.5,1023.32,0,0,0,0,0.031319
2020/07/24 00:15:00.009,n,271,2.88,2.16,3.6,14.1,85.4,1023.32,0,0,0,0,0.034828
2020/07/24 00:16:00.006,n,246,2.88,2.52,3.96,14.1,85.1,1023.32,0,0,0,0,0.030479
2020/07/24 00:17:00.003,n,248,1.44,1.44,1.8,14,85,1023.32,0,0,0,0,0.033073
2020/07/24 00:18:00.000,n,249,2.52,2.16,2.88,14,85,1023.32,0,0,0,0,0.032234
2020/07/24 00:19:00.000,n,234,2.52,1.8,2.88,14,84.9,1023.32,0,0,0,0,0.035667
2020/07/24 00:20:00.000,n,239,1.8,1.44,2.16,14,84.9,1023.32,0,0,0,0,0.031319
2020/07/24 00:21:00.000,n,251,2.52,2.52,2.88,14,85.2,1023.32,0,0,0,0,0.028725
2020/07/24 00:22:00.000,n,257,2.52,2.16,2.88,14,85.3,1023.32,0,0,0,0,0.034828
2020/07/24 00:23:00.005,n,268,5.4,4.68,6.12,14.1,85.2,1023.32,0,0,0,0,0.031319
2020/07/24 00:24:00.003,n,255,3.6,3.24,3.96,14,84.9,1023.32,0,0,0,0,0.033073
2020/07/24 00:25:00.000,n,258,4.68,4.32,5.04,14,84.8,1023.32,0,0,0,0,0.033951
2020/07/24 00:26:00.013,n,255,4.68,3.96,5.4,14,84.7,1023.32,0,0,0,0,0.0383
2020/07/24 00:27:00.010,n,250,3.96,3.6,4.32,14,84.7,1023.32,0,0,0,0,0.030479
2020/07/24 00:28:00.000,n,241,2.52,1.8,3.24,14,84.8,1023.32,0,0,0,0,0.032234
2020/07/24 00:29:00.003,n,260,4.32,3.96,4.68,14,84.8,1023.32,0,0,0,0,0.030479
2020/07/24 00:30:00.000,n,258,3.96,3.24,4.32,14,84.8,1023.32,0,0,0,0,0.028725
2020/07/24 00:31:00.000,n,260,1.44,1.44,2.16,14,84.8,1023.32,0,0,0,0,0.033073
2020/07/24 00:32:00.000,n,251,2.52,2.16,2.88,14,85.2,1023.32,0,0,0,0,0.030479
2020/07/24 00:33:00.007,n,262,2.52,2.16,2.88,14,85,1023.32,0,0,0,0,0.031319
2020/07/24 00:34:00.005,n,255,2.88,2.88,3.24,14,84.9,1023.32,0,0,0,0,0.033951
2020/07/24 00:35:00.002,n,254,1.8,1.8,2.52,14,85,1023.32,0,0,0,0,0.032234
2020/07/24 00:36:00.001,n,232,1.44,1.08,1.8,14,84.9,1023.32,0,0,0,0,0.030479
2020/07/24 00:37:00.000,n,275,3.96,3.6,4.32,14,85,1023.32,0,0,0,0,0.035667
2020/07/24 00:38:00.000,n,244,4.68,3.96,5.4,14,84.7,1023.32,0,0,0,0,0.033073
2020/07/24 00:39:00.000,n,229,1.44,1.44,1.8,14,84.7,1023.32,0,0,0,0,0.033951
2020/07/24 00:40:00.000,n,259,6.48,5.04,7.56,14,84.7,1023.32,0,0,0,0,0.031319
2020/07/24 00:41:00.004,n,272,5.4,5.04,6.12,14,84.6,1023.32,0,0,0,0,0.035667
2020/07/24 00:42:00.002,n,255,3.6,3.24,3.96,14,84.6,1023.32,0,0,0,0,0.033951
2020/07/24 00:43:00.000,n,166,0.36,0,0.36,14,84.6,1023.32,0,0,0,0,0.033073
2020/07/24 00:44:00.012,n,110,1.44,1.08,2.16,14,84.8,1023.32,0,0,0,0,0.034828
2020/07/24 00:45:00.010,n,236,2.16,2.16,2.52,14,84.8,1023.32,0,0,0,0,0.036583
2020/07/24 00:46:00.000,n,309,2.16,1.08,3.6,14,84.8,1023.32,0,0,0,0,0.033951
2020/07/24 00:47:00.000,n,217,2.16,1.8,2.16,14,84.8,1023.32,0,0,0,0,0.034828
2020/07/24 00:48:00.002,n,173,0.36,0,1.08,14,84.8,1023.32,0,0,0,0,0.035667
2020/07/24 00:49:00.000,n,126,1.08,0.36,1.44,14,84.8,1023.32,0.01,0.1,0,0,0.032234
2020/07/24 00:50:00.005,n,113,2.88,2.52,2.88,14,84.9,1023.32,0.01,0,0,0,0.036583
2020/07/24 00:51:00.011,n,96,2.16,1.44,2.88,14,85,1023.32,0.01,0,0,0,0.036583
2020/07/24 00:52:00.000,n,244,2.16,1.8,2.16,14,85,1023.32,0.01,0.1,0,0,0.0383
2020/07/24 00:53:00.005,n,197,1.8,1.44,2.16,14,84.9,1023.32,0.01,0.2,0,0,0.033951
2020/07/24 00:54:00.010,n,262,1.8,1.08,2.52,14.1,85.1,1023.32,0.02,0.1,0,0,0.034828
2020/07/24 00:55:00.000,n,239,2.52,1.8,3.24,14.1,84.9,1023.32,0.02,0,0,0,0.034828
2020/07/24 00:56:00.000,n,276,3.96,3.24,4.68,14.1,84.9,1023.32,0.02,0.1,0,0,0.034828
2020/07/24 00:57:00.004,n,276,2.16,1.8,2.88,14.1,84.8,1023.32,0.02,0,0,0,0.035667
2020/07/24 00:58:00.001,n,286,4.68,4.32,5.4,14.1,84.8,1023.32,0.02,0.1,0,0,0.040054
2020/07/24 00:59:00.000,n,241,3.96,3.24,4.32,14.1,84.6,1023.32,0.02,0.1,0,0,0.033073
2020/07/24 01:00:00.000,n,254,6.12,5.76,7.2,14.1,84.7,1023.32,0.04,0.7,0,0,0.034828
2020/07/24 01:01:00.012,n,281,2.52,1.8,3.24,14.1,84.7,1023.32,0.04,0.7,0,0,0.034828
2020/07/24 01:02:00.009,n,271,2.88,2.16,3.6,14.1,84.8,1023.32,0.04,0.2,0,0,0.033073
2020/07/24 01:03:00.007,n,249,3.24,2.52,3.6,14.1,84.7,1023.32,0.05,0.7,0,0,0.033951
2020/07/24 01:04:00.000,n,258,5.04,4.68,5.76,14.1,84.5,1023.32,0.06,0.3,0,0,0.032234
2020/07/24 01:05:00.004,n,250,2.52,2.16,2.88,14.1,84.7,1023.32,0.07,0.4,0,0,0.039177
2020/07/24 01:06:00.001,n,273,4.32,3.6,4.68,14.1,84.6,1023.32,0.07,0.3,0,0,0.033951
2020/07/24 01:07:00.000,n,236,3.96,3.24,5.04,14.1,84.6,1023.32,0.07,0,0,0,0.036583
2020/07/24 01:08:00.000,n,257,3.6,3.6,3.96,14.1,84.6,1023.32,0.08,0.6,0,0,0.036583
2020/07/24 01:09:00.011,n,254,4.68,4.68,5.04,14.1,84.6,1023.32,0.08,0,0,0,0.033951
2020/07/24 01:10:00.008,n,270,3.24,2.16,4.32,14.1,84.5,1023.32,0.09,0.1,0,0,0.0383
2020/07/24 01:11:00.006,n,270,3.24,2.88,3.96,14.1,84.4,1023.32,0.09,0,0,0,0.033073
2020/07/24 01:12:00.004,n,215,3.96,3.24,4.68,14.1,84.5,1023.32,0.12,1.8,0,0,0.033951
2020/07/24 01:13:00.000,n,267,3.6,3.24,3.96,14.1,84.5,1023.32,0.12,0,0,0,0.032234
2020/07/24 01:14:00.000,n,254,2.52,1.8,3.6,14.1,84.3,1023.32,0.12,0,0,0,0.033951
2020/07/24 01:15:00.000,n,246,3.6,3.24,3.6,14.1,84.3,1023.32,0.12,0,0,0,0.032234
2020/07/24 01:16:00.000,n,265,2.52,1.8,2.88,14.1,84.4,1023.32,0.12,0,0,0,0.033951
2020/07/24 01:17:00.009,n,231,3.96,3.24,4.32,14.1,84.3,1023.32,0.12,0,0,0,0.03746
2020/07/24 01:18:00.006,n,232,2.16,1.8,2.52,14.1,84.3,1023.22,0.16,2.4,0,0,0.035667
2020/07/24 01:19:00.003,n,253,1.8,0.72,2.52,14.1,84.3,1023.32,0.16,0,0,0,0.03746
2020/07/24 01:20:00.002,n,276,2.88,2.52,3.24,14.1,84.4,1023.32,0.16,0,0,0,0.034828
2020/07/24 01:21:00.016,n,252,2.88,2.52,2.88,14.1,84.3,1023.32,0.16,0,0,0,0.033951
2020/07/24 01:22:00.000,n,253,3.6,3.24,3.96,14.1,84.3,1023.32,0.16,0,0,0,0.033951
2020/07/24 01:23:00.000,n,300,2.52,1.8,3.6,14.1,84.4,1023.22,0.17,0.1,0,0,0.031319
2020/07/24 01:24:00.000,n,315,3.6,2.52,6.12,14.1,84.5,1023.22,0.17,0.2,0,0,0.033951
2020/07/24 01:25:00.005,n,255,3.96,3.24,4.68,14.1,84.3,1023.22,0.17,0.2,0,0,0.034828
2020/07/24 01:26:00.003,n,206,1.8,1.8,2.16,14.1,84.4,1023.32,0.17,0.1,0,0,0.033951
2020/07/24 01:27:00.000,n,224,5.04,4.32,5.4,14.1,84.4,1023.32,0.18,0.1,0,0,0.035667
2020/07/24 01:28:00.000,n,281,3.24,2.88,4.32,14.1,84.3,1023.22,0.18,0.1,0,0,0.034828
2020/07/24 01:29:00.012,n,240,0.36,0.36,0.72,14.1,84.3,1023.32,0.18,0,0,0,0.034828
2020/07/24 01:30:00.010,n,257,3.96,3.6,4.32,14.1,84.4,1023.32,0.18,0.2,0,0,0.031319
2020/07/24 01:31:00.000,n,192,1.8,1.44,2.52,14.1,84.3,1023.32,0.18,0,0,0,0.030479
2020/07/24 01:32:00.000,n,238,3.24,2.52,3.6,14.1,84.3,1023.32,0.21,1.5,0,0,0.028725
2020/07/24 01:33:00.003,n,235,1.08,0.36,1.8,14.1,84.3,1023.32,0.21,0.1,0,0,0.031319
2020/07/24 01:34:00.000,n,96,1.08,0.72,1.08,14.1,84.4,1023.32,0.21,0.1,0,0,0.032234
2020/07/24 01:35:00.000,n,224,1.8,1.44,2.16,14.2,84.4,1023.32,0.21,0,0,0,0.034828
2020/07/24 01:36:00.000,n,45,2.16,1.8,2.52,14.2,84.5,1023.32,0.22,0.2,0,0,0.034828
2020/07/24 01:37:00.012,n,216,5.4,4.68,7.2,14.2,84.5,1023.32,0.22,0,0,0,0.032234
2020/07/24 01:38:00.010,n,151,3.6,3.24,3.96,14.2,84.3,1023.32,0.22,0.2,0,0,0.034828
2020/07/24 01:39:00.007,n,232,3.6,3.24,4.32,14.2,84.3,1023.32,0.22,0,0,0,0.029602
2020/07/24 01:40:00.000,n,214,6.12,5.4,7.92,14.2,84.2,1023.32,0.23,0.1,0,0,0.033951
2020/07/24 01:41:00.003,n,146,1.44,0,2.88,14.2,84.2,1023.32,0.23,0.1,0,0,0.033951
2020/07/24 01:42:00.001,n,175,2.52,2.52,2.88,14.2,84.2,1023.32,0.23,0.2,0,0,0.033951
2020/07/24 01:43:00.000,n,213,1.8,1.08,2.52,14.2,84.3,1023.32,0.23,0,0,0,0.034828
2020/07/24 01:44:00.000,n,263,6.84,6.12,7.56,14.2,84.3,1023.32,0.24,0.3,0,0,0.032234
2020/07/24 01:45:00.003,n,253,3.96,3.24,5.04,14.2,84.1,1023.22,0.24,0.2,0,0,0.030479
2020/07/24 01:46:00.010,n,188,1.8,1.44,2.16,14.2,84.1,1023.22,0.24,0,0,0,0.029602
2020/07/24 01:47:00.000,n,233,2.16,1.8,2.52,14.2,84.1,1023.22,0.25,0,0,0,0.033951
2020/07/24 01:48:00.006,n,264,3.24,2.88,3.6,14.2,84.2,1023.32,0.25,0.1,0,0,0.034828
2020/07/24 01:49:00.000,n,284,2.88,2.52,3.24,14.2,84.3,1023.32,0.25,0.2,0,0,0.033073
2020/07/24 01:50:00.001,n,231,3.96,3.96,4.32,14.2,84.2,1023.32,0.25,0,0,0,0.033951
2020/07/24 01:51:00.000,n,162,1.8,1.44,2.52,14.2,84.2,1023.32,0.26,0.4,0,0,0.027885
2020/07/24 01:52:00.000,n,211,1.08,0.36,1.44,14.2,84.2,1023.32,0.26,0.2,0,0,0.030479
2020/07/24 01:53:00.004,n,252,1.08,0.36,2.16,14.2,84.3,1023.32,0.27,0.2,0,0,0.032234
2020/07/24 01:54:00.010,n,89,0.72,0,1.44,14.2,84.4,1023.32,0.28,0.6,0,0,0.033951
2020/07/24 01:55:00.000,n,300,2.16,1.44,2.52,14.2,84.3,1023.32,0.29,0.5,0,0,0.030479
2020/07/24 01:56:00.007,n,228,2.16,1.8,2.52,14.2,84.1,1023.32,0.3,0.4,0,0,0.032234
2020/07/24 01:57:00.014,n,261,3.24,2.16,4.32,14.2,84.1,1023.32,0.3,0.5,0,0,0.033073
2020/07/24 01:58:00.000,n,162,2.16,1.8,2.52,14.2,84.2,1023.32,0.32,0.6,0,0,0.033951
2020/07/24 01:59:00.000,n,233,1.44,1.08,1.8,14.2,84.2,1023.32,0.32,0.1,0,0,0.036583
2020/07/24 02:00:00.000,n,242,2.52,2.16,2.88,14.2,84.5,1023.32,0.33,0.8,0,0,0.034828
2020/07/24 02:01:00.007,n,250,1.08,0.72,1.44,14.2,84.4,1023.32,0.34,0.6,0,0,0.032234
2020/07/24 02:02:00.000,n,243,2.52,2.16,3.24,14.2,84.4,1023.32,0.35,0.3,0,0,0.031319
2020/07/24 02:03:00.002,n,254,3.24,2.88,3.6,14.2,84.3,1023.32,0.36,0.6,0,0,0.031319
2020/07/24 02:04:00.009,n,123,1.8,1.44,1.8,14.2,84.5,1023.32,0.37,0.4,0,0,0.03746
2020/07/24 02:05:00.000,n,168,2.88,2.52,3.24,14.2,84.5,1023.32,0.37,0.4,0,0,0.028725
2020/07/24 02:06:00.005,n,203,2.16,1.8,2.52,14.2,84.3,1023.32,0.39,0.5,0,0,0.030479
2020/07/24 02:07:00.000,n,190,1.44,1.44,1.8,14.2,84.3,1023.32,0.4,1.1,0,0,0.033951
2020/07/24 02:08:00.000,n,236,2.16,1.8,2.88,14.2,84.4,1023.32,0.42,1.2,0,0,0.035667
2020/07/24 02:09:00.000,n,291,1.8,0.72,2.16,14.2,84.5,1023.32,0.43,0.6,0,0,0.028725
2020/07/24 02:10:00.000,n,242,1.08,0.72,1.44,14.2,84.6,1023.32,0.44,0.2,0,0,0.033951
2020/07/24 02:11:00.002,n,122,1.08,0.72,1.44,14.2,84.7,1023.32,0.45,0.6,0,0,0.031319
2020/07/24 02:12:00.009,n,58,1.8,1.44,2.16,14.2,84.9,1023.22,0.46,1,0,0,0.0383
2020/07/24 02:13:00.000,n,111,0.72,0.36,0.72,14.2,84.6,1023.22,0.48,1,0,0,0.029602
2020/07/24 02:14:00.005,n,195,1.08,0.72,1.08,14.2,84.6,1023.22,0.49,0.4,0,0,0.031319
2020/07/24 02:15:00.011,n,190,0.36,0.36,0.36,14.2,84.6,1023.22,0.51,0.9,0,0,0.031319
2020/07/24 02:16:00.001,n,121,0.36,0,0.72,14.2,84.6,1023.22,0.52,0.7,0,0,0.034828
2020/07/24 02:17:00.000,n,224,1.44,1.44,1.44,14.2,84.7,1023.22,0.55,1.6,0,0,0.036583
2020/07/24 02:18:00.000,n,243,3.6,3.24,3.6,14.2,84.7,1023.22,0.6,3.1,0,0,0.032234
2020/07/24 02:19:00.005,n,249,1.8,1.44,1.8,14.2,84.7,1023.22,0.65,3.2,0,0,0.033951
2020/07/24 02:20:00.000,n,262,1.8,1.08,2.52,14.2,84.5,1023.22,0.73,2.5,0,0,0.036583
2020/07/24 02:21:00.001,n,249,2.16,1.8,2.16,14.2,84.6,1023.22,0.79,5,0,0,0.033951
2020/07/24 02:22:00.007,n,247,0.72,0.72,1.08,14.2,84.6,1023.22,0.87,5.1,0,0,0.033073
2020/07/24 02:23:00.013,n,264,3.6,3.24,3.96,14.2,84.6,1023.22,0.96,5.4,0,0,0.032234
2020/07/24 02:24:00.003,n,264,3.96,3.24,3.96,14.2,84.8,1023.22,0.99,1.9,0,0,0.034828
2020/07/24 02:25:00.000,n,248,1.8,1.44,1.8,14.2,84.7,1023.12,1.04,2.7,0,0,0.035667
2020/07/24 02:26:00.000,n,219,2.16,2.16,2.52,14.2,84.8,1023.12,1.09,3.6,0,0,0.033073
2020/07/24 02:27:00.000,n,272,1.8,0.72,2.88,14.2,85,1023.12,1.13,2,0,0,0.035667
2020/07/24 02:28:00.000,n,238,2.52,2.16,2.88,14.2,85,1023.12,1.15,1.3,0,0,0.033951
2020/07/24 02:29:00.002,n,221,1.44,0.72,2.16,14.2,84.8,1023.12,1.17,1.1,0,0,0.034828
2020/07/24 02:30:00.010,n,198,1.44,1.08,1.8,14.2,84.8,1023.12,1.19,1,0,0,0.034828
2020/07/24 02:31:00.000,n,240,2.88,2.52,3.24,14.2,84.7,1023.12,1.2,0.9,0,0,0.035667
2020/07/24 02:32:00.005,n,260,2.88,2.52,3.24,14.2,84.7,1023.12,1.21,0.5,0,0,0.033073
2020/07/24 02:33:00.012,n,270,3.96,3.96,4.32,14.1,84.7,1023.02,1.21,0.1,0,0,0.032234
2020/07/24 02:34:00.002,n,263,3.24,3.24,3.96,14.1,84.6,1023.02,1.22,0,0,0,0.035667
2020/07/24 02:35:00.000,n,253,1.8,1.44,2.16,14.1,84.8,1023.02,1.24,1.3,0,0,0.040054
2020/07/24 02:36:00.000,n,240,2.16,1.8,2.88,14.1,85,1023.02,1.24,0.2,0,0,0.035667
2020/07/24 02:37:00.004,n,256,3.24,2.16,3.96,14.1,85,1023.02,1.24,0,0,0,0.03746
2020/07/24 02:38:00.000,n,168,0.72,0.36,1.08,14.1,84.9,1023.02,1.26,1.1,0,0,0.035667
2020/07/24 02:39:00.000,n,182,0.36,0.36,0.72,14.1,84.9,1022.92,1.26,0,0,0,0.035667
2020/07/24 02:40:00.006,n,141,1.8,1.44,1.8,14.1,85,1022.92,1.26,0,0,0,0.035667
2020/07/24 02:41:00.013,n,259,0.36,0,0.36,14.1,85,1022.92,1.26,0,0,0,0.033951
2020/07/24 02:42:00.002,n,139,0.36,0.36,0.72,14.1,85.1,1022.92,1.26,0,0,0,0.03746
2020/07/24 02:43:00.000,n,136,1.08,1.08,1.44,14.1,85.1,1022.92,1.26,0,0,0,0.036583
2020/07/24 02:44:00.000,n,134,1.44,1.44,1.8,14.1,85,1022.92,1.26,0,0,0,0.036583
2020/07/24 02:45:00.003,n,160,0.72,0.36,1.08,14.1,85,1022.92,1.26,0,0,0,0.034828
2020/07/24 02:46:00.000,n,147,0.72,0.72,1.08,14.1,85,1022.92,1.26,0,0,0,0.035667
2020/07/24 02:47:00.000,n,225,1.08,0.72,1.44,14.1,85.1,1022.92,1.26,0,0,0,0.036583
2020/07/24 02:48:00.004,n,244,2.52,2.16,2.88,14.1,85.1,1022.92,1.26,0,0,0,0.034828
2020/07/24 02:49:00.010,n,297,0.72,0,1.08,14.1,85.2,1022.92,1.26,0,0,0,0.03746
2020/07/24 02:50:00.000,n,236,2.52,2.16,2.88,14.1,85.3,1022.92,1.26,0,0,0,0.036583
2020/07/24 02:51:00.005,n,257,0.72,0.36,1.08,14.1,85.3,1022.92,1.26,0,0,0,0.03746
2020/07/24 02:52:00.000,n,237,1.44,1.44,1.8,14.1,85.2,1022.92,1.26,0,0,0,0.036583
2020/07/24 02:53:00.000,n,224,2.16,2.16,2.16,14.1,85.2,1022.92,1.26,0,0,0,0.034828
2020/07/24 02:54:00.000,n,249,1.8,1.44,2.16,14.1,85.2,1022.92,1.26,0,0,0,0.033951
2020/07/24 02:55:00.000,n,221,0.36,0,0.36,14.1,85.2,1022.92,1.26,0,0,0,0.033073
2020/07/24 02:56:00.004,n,135,1.44,1.08,1.8,14.1,85.3,1022.92,1.26,0,0,0,0.034828
2020/07/24 02:57:00.010,n,253,2.16,1.8,2.52,14.1,85.3,1022.92,1.26,0,0,0,0.033951
2020/07/24 02:58:00.000,n,174,2.16,1.08,2.52,14.1,85.3,1022.92,1.26,0,0,0,0.034828
2020/07/24 02:59:00.006,n,226,1.08,0.36,1.44,14.1,85.3,1022.92,1.26,0,0,0,0.033951
2020/07/24 03:00:00.012,n,187,2.88,2.52,3.6,14.1,85.4,1022.92,1.26,0,0,0,0.03746
2020/07/24 03:01:00.001,n,147,2.16,2.16,2.52,14.1,85.4,1022.92,1.27,0,0,0,0.034828
2020/07/24 03:02:00.000,n,170,2.16,1.8,2.52,14,85.4,1022.92,1.27,0.1,0,0,0.034828
2020/07/24 03:03:00.000,n,234,1.44,1.08,1.44,14,85.4,1022.92,1.27,0.1,0,0,0.033951
2020/07/24 03:04:00.003,n,175,1.08,0.72,2.16,14,85.5,1022.92,1.27,0,0,0,0.035667
2020/07/24 03:05:00.009,n,137,2.52,1.44,3.6,14,85.5,1022.92,1.28,0.3,0,0,0.034828
2020/07/24 03:06:00.000,n,118,1.44,1.08,1.8,14,85.5,1022.92,1.28,0.1,0,0,0.035667
2020/07/24 03:07:00.005,n,89,1.08,0.72,1.08,14,85.5,1022.92,1.29,0.4,0,0,0.036583
2020/07/24 03:08:00.012,n,117,1.8,1.08,2.16,14,85.6,1022.92,1.29,0.3,0,0,0.033073
2020/07/24 03:09:00.001,n,124,1.8,1.8,2.52,14,85.6,1022.92,1.31,1.2,0,0,0.033073
2020/07/24 03:10:00.000,n,136,1.8,1.44,2.16,14,85.5,1022.92,1.33,0.8,0,0,0.033951
2020/07/24 03:11:00.000,n,185,0.72,0.36,0.72,14,85.5,1022.92,1.34,0.9,0,0,0.03746
2020/07/24 03:12:00.004,n,136,2.16,1.44,2.52,14,85.6,1022.92,1.36,0.6,0,0,0.034828
2020/07/24 03:13:00.000,n,146,6.84,5.4,8.28,14,85.7,1022.92,1.38,1.2,0,0,0.032234
2020/07/24 03:14:00.000,n,146,2.88,2.52,3.6,14,85.6,1022.92,1.4,1.3,0,0,0.032234
2020/07/24 03:15:00.006,n,138,5.76,5.4,6.12,14,85.7,1022.92,1.41,0.5,0,0,0.031319
2020/07/24 03:16:00.012,n,193,1.44,0.72,1.8,14,85.6,1022.92,1.43,1,0,0,0.033951
2020/07/24 03:17:00.002,n,156,3.96,0.72,5.76,13.9,85.8,1022.82,1.46,1.7,0,0,0.031319
2020/07/24 03:18:00.008,n,149,6.84,6.12,7.2,13.9,85.7,1022.82,1.48,1.4,0,0,0.032234
2020/07/24 03:19:00.000,n,168,2.16,1.8,2.52,13.9,85.8,1022.82,1.49,0.6,0,0,0.033951
2020/07/24 03:20:00.000,n,194,5.4,4.32,6.48,13.9,85.9,1022.82,1.5,0.7,0,0,0.031319
2020/07/24 03:21:00.000,n,134,5.76,4.32,7.2,13.9,85.9,1022.82,1.52,0.9,0,0,0.035667
2020/07/24 03:22:00.000,n,173,6.48,5.4,8.28,13.9,85.9,1022.82,1.53,0.3,0,0,0.034828
2020/07/24 03:23:00.006,n,173,4.32,3.96,4.68,13.9,85.9,1022.82,1.53,0.7,0,0,0.032234
2020/07/24 03:24:00.000,n,243,2.52,2.16,2.52,13.9,85.9,1022.82,1.55,1.1,0,0,0.032234
2020/07/24 03:25:00.002,n,196,0.72,0.72,0.72,13.9,86,1022.82,1.56,0.2,0,0,0.033951
2020/07/24 03:26:00.007,n,187,1.44,1.08,1.8,13.9,86.1,1022.82,1.57,0.4,0,0,0.033073
2020/07/24 03:27:00.014,n,106,0.36,0,0.72,14,86.2,1022.82,1.57,0.2,0,0,0.030479
2020/07/24 03:28:00.000,n,163,2.16,1.8,2.52,14,86,1022.82,1.57,0,0,0,0.033951
2020/07/24 03:29:00.000,n,311,1.44,1.08,1.8,14,86,1022.82,1.58,0.2,0,0,0.036583
2020/07/24 03:30:00.000,n,146,4.32,3.6,5.04,14,86,1022.82,1.58,0.1,0,0,0.032234
2020/07/24 03:31:00.007,n,168,1.8,1.8,2.16,14,86,1022.82,1.58,0,0,0,0.032234
2020/07/24 03:32:00.000,n,193,0.72,0.36,1.44,13.9,86,1022.82,1.58,0.3,0,0,0.030479
2020/07/24 03:33:00.002,n,295,0.72,0.36,1.08,14,86.1,1022.82,1.58,0,0,0,0.032234
2020/07/24 03:34:00.009,n,172,0.72,0.36,1.08,14,86,1022.82,1.59,0,0,0,0.033073
2020/07/24 03:35:00.014,n,104,0.72,0,1.08,14,86.1,1022.82,1.59,0,0,0,0.033073
2020/07/24 03:36:00.004,n,194,0.72,0,1.8,14,86.3,1022.82,1.59,0,0,0,0.029602
2020/07/24 03:37:00.000,n,98,0.36,0.36,0.72,14,86.3,1022.82,1.59,0,0,0,0.031319
2020/07/24 03:38:00.000,n,94,1.44,1.08,1.44,14,86.2,1022.82,1.59,0,0,0,0.030479
2020/07/24 03:39:00.004,n,246,2.52,2.16,2.52,14,86.2,1022.82,1.61,0,0,0,0.033073
2020/07/24 03:40:00.000,n,6,1.44,0.72,1.8,14,86.3,1022.82,1.61,1.2,0,0,0.032234
2020/07/24 03:41:00.000,n,231,1.44,1.44,1.8,14,86.2,1022.82,1.61,0,0,0,0.030479
2020/07/24 03:42:00.005,n,274,1.08,0.36,1.08,14,86.2,1022.82,1.61,0,0,0,0.030479
2020/07/24 03:43:00.012,n,221,2.16,1.8,2.16,14,86,1022.72,1.61,0,0,0,0.033951
2020/07/24 03:44:00.001,n,144,1.08,1.08,1.44,14,86,1022.72,1.61,0,0,0,0.035667
2020/07/24 03:45:00.008,n,283,0.36,0.36,0.72,14,86.1,1022.72,1.61,0,0,0,0.035667
2020/07/24 03:46:00.000,n,179,0.72,0.36,0.72,14,86.1,1022.72,1.61,0,0,0,0.031319
2020/07/24 03:47:00.003,n,87,1.44,1.08,1.8,14,86.1,1022.72,1.61,0,0,0,0.034828
2020/07/24 03:48:00.000,n,167,0.36,0.36,0.72,14,86.1,1022.72,1.61,0,0,0,0.029602
2020/07/24 03:49:00.000,n,190,1.44,0.36,2.52,14,86,1022.72,1.61,0,0,0,0.034828
2020/07/24 03:50:00.005,n,178,1.44,1.44,2.16,14,86.1,1022.72,1.61,0,0,0,0.030479
2020/07/24 03:51:00.000,n,133,1.08,0.72,1.44,14,86.1,1022.72,1.61,0,0,0,0.032234
2020/07/24 03:52:00.000,n,162,1.08,1.08,1.44,14,86.2,1022.72,1.61,0.3,0,0,0.031319
2020/07/24 03:53:00.006,n,245,1.44,0.72,2.16,14,86.2,1022.72,1.62,0.1,0,0,0.030479
2020/07/24 03:54:00.013,n,239,1.8,1.08,2.52,14,86.3,1022.72,1.62,0,0,0,0.031319
2020/07/24 03:55:00.000,n,245,3.96,3.6,4.32,14,86.2,1022.72,1.62,0.1,0,0,0.033073
2020/07/24 03:56:00.000,n,254,1.8,1.44,1.8,14,86.1,1022.72,1.62,0,0,0,0.034828
2020/07/24 03:57:00.000,n,165,1.44,0.72,1.8,14,86.2,1022.72,1.62,0,0,0,0.035667
2020/07/24 03:58:00.005,n,246,2.16,1.44,2.52,14,86.3,1022.72,1.62,0,0,0,0.032234
2020/07/24 03:59:00.000,n,254,2.52,2.16,2.88,14,86.2,1022.72,1.62,0,0,0,0.036583
2020/07/24 04:00:00.000,n,242,2.16,2.16,2.52,14,86.1,1022.72,1.62,0,0,0,0.032234
2020/07/24 04:01:00.005,n,221,1.44,1.08,1.44,14,86.1,1022.72,1.62,0,0,0,0.029602
2020/07/24 04:02:00.011,n,251,2.52,2.16,2.88,14,86.1,1022.72,1.62,0,0,0,0.033951
2020/07/24 04:03:00.000,n,241,2.88,1.8,3.6,14,86.2,1022.72,1.62,0,0,0,0.033073
2020/07/24 04:04:00.000,n,184,0.72,0.36,1.08,14,86.1,1022.72,1.62,0,0,0,0.031319
2020/07/24 04:05:00.000,n,251,1.08,0.72,1.44,14,86.2,1022.72,1.62,0,0,0,0.035667
2020/07/24 04:06:00.002,n,250,1.8,1.44,2.16,14,86.2,1022.72,1.62,0,0,0,0.033073
2020/07/24 04:07:00.000,n,83,2.88,2.16,3.6,14,86.3,1022.72,1.62,0,0,0,0.036583
2020/07/24 04:08:00.000,n,93,1.44,0.72,1.8,14,86.4,1022.72,1.62,0,0,0,0.032234
2020/07/24 04:09:00.002,n,143,2.52,2.16,2.88,14,86.4,1022.82,1.62,0,0,0,0.032234
2020/07/24 04:10:00.007,n,134,1.8,1.08,2.16,14,86.3,1022.82,1.62,0,0,0,0.031319
2020/07/24 04:11:00.013,n,74,1.8,1.44,1.8,14,86.3,1022.82,1.62,0,0,0,0.03746
2020/07/24 04:12:00.002,n,243,2.52,2.16,2.88,14,86.5,1022.82,1.62,0,0,0,0.033951
2020/07/24 04:13:00.000,n,107,1.08,0.72,1.8,14,86.4,1022.82,1.62,0,0,0,0.031319
2020/07/24 04:14:00.000,n,247,1.8,1.8,1.8,14,86.4,1022.82,1.62,0,0,0,0.031319
2020/07/24 04:15:00.002,n,306,1.8,0.72,2.88,14,86.3,1022.82,1.62,0,0,0,0.031319
2020/07/24 04:16:00.000,n,351,2.16,2.16,2.88,14,86.3,1022.82,1.62,0,0,0,0.033073
2020/07/24 04:17:00.000,n,163,0.72,0.36,1.08,14,86.3,1022.82,1.62,0,0,0,0.033073
2020/07/24 04:18:00.001,n,146,1.8,1.8,2.52,14,86.4,1022.92,1.62,0,0,0,0.030479
2020/07/24 04:19:00.007,n,116,0.72,0.36,1.08,14,86.3,1022.92,1.62,0,0,0,0.032234
2020/07/24 04:20:00.013,n,249,2.52,2.52,2.88,14,86.3,1022.92,1.62,0,0,0,0.034828
2020/07/24 04:21:00.003,n,225,1.8,1.44,2.52,14,86.2,1022.82,1.62,0,0,0,0.034828
2020/07/24 04:22:00.000,n,233,1.44,0.72,1.8,14,86.3,1022.82,1.62,0,0,0,0.035667
2020/07/24 04:23:00.000,n,200,3.24,1.8,3.96,14,86.3,1022.82,1.62,0,0,0,0.032234
2020/07/24 04:24:00.003,n,244,2.52,2.52,2.52,14,86.3,1022.82,1.62,0,0,0,0.03746
2020/07/24 04:25:00.000,n,238,1.08,0.36,1.44,14,86.3,1022.82,1.62,0,0,0,0.03746
2020/07/24 04:26:00.000,n,106,1.44,0.36,2.52,14,86.3,1022.82,1.62,0,0,0,0.033073
2020/07/24 04:27:00.002,n,182,3.96,3.6,4.68,14,86.3,1022.82,1.62,0,0,0,0.036583
2020/07/24 04:28:00.008,n,165,0.36,0.36,0.72,14,86.3,1022.82,1.62,0,0,0,0.035667
2020/07/24 04:29:00.014,n,203,2.16,1.8,2.52,14,86.2,1022.82,1.62,0,0,0,0.03746
2020/07/24 04:30:00.003,n,241,1.8,1.44,2.16,14,86.3,1022.82,1.62,0,0,0,0.035667
2020/07/24 04:31:00.000,n,283,0.36,0.36,0.72,14,86.4,1022.82,1.62,0,0,0,0.03746
2020/07/24 04:32:00.000,n,240,1.08,0.72,1.44,14,86.3,1022.82,1.62,0,0,0,0.03746
2020/07/24 04:33:00.005,n,128,1.8,1.44,2.16,14,86.3,1022.82,1.62,0,0,0,0.040054
2020/07/24 04:34:00.000,n,192,0.72,0.36,1.44,14,86.3,1022.82,1.62,0,0,0,0.03746
2020/07/24 04:35:00.000,n,85,2.16,1.8,2.52,14,86.5,1022.82,1.62,0,0,0,0.040054
2020/07/24 04:36:00.006,n,298,0.72,0.36,1.08,14.1,86.5,1022.82,1.62,0,0,0,0.039177
2020/07/24 04:37:00.011,n,41,1.44,0.72,1.8,14.1,86.6,1022.82,1.62,0,0,0,0.0383
2020/07/24 04:38:00.001,n,242,1.44,0.72,1.8,14.1,86.5,1022.82,1.62,0,0,0,0.036583
2020/07/24 04:39:00.006,n,146,3.96,3.96,4.32,14.1,86.4,1022.82,1.62,0,0,0,0.03746
2020/07/24 04:40:00.000,n,184,7.56,6.48,8.64,14.1,86.1,1022.82,1.62,0,0,0,0.039177
2020/07/24 04:41:00.001,n,157,5.04,4.68,5.76,14,86,1022.82,1.62,0,0,0,0.034828
2020/07/24 04:42:00.000,n,155,4.32,3.6,5.4,14,86.1,1022.82,1.62,0,0,0,0.040054
2020/07/24 04:43:00.000,n,189,4.68,3.96,5.4,13.9,86.1,1022.82,1.62,0,0,0,0.0383
2020/07/24 04:44:00.002,n,150,3.6,2.52,4.32,13.9,86.1,1022.82,1.62,0,0,0,0.036583
2020/07/24 04:45:00.008,n,132,4.68,3.96,6.12,13.9,86.1,1022.82,1.62,0,0,0,0.03746
2020/07/24 04:46:00.000,n,224,3.24,3.24,3.24,13.9,86.2,1022.82,1.62,0,0,0,0.034828
2020/07/24 04:47:00.002,n,184,5.04,4.32,5.76,13.9,86.2,1022.82,1.62,0,0,0,0.033073